Location: *
(35.8942°N, 23.3025°E)
Time: 22:21:23
(UTC+00:00)

Cosmos 1515 - Pass Details

Date: 21 September 2021
Orbit: 504 x 514 km, 82.5° (Epoch: 22 October)

Event Time Altitude Azimuth Distance (km) Brightness Sun altitude
Rises 03:23:35 0° 182° (S) 2,603 7.2 -11.0°
Reaches altitude 10° 03:25:41 10° 180° (S) 1,724 6.3 -10.6°
Maximum altitude 03:29:28 74° 95° (E) 537 3.9 -9.8°
Drops below altitude 10° 03:33:16 10° 11° (N) 1,742 6.6 -9.0°
Sets 03:35:25 0° 9° (N) 2,634 7.5 -8.6°
